Regional Weather Roundup
Issued by NWS Cleveland, OH

Home | Current Version | Previous Version | Text Only | Print | Product List | Glossary Off
Versions: 1 2 3 4 5 6 7 8 9 10 11 12 13 14 15 16 17 18 19 20 21 22 23 24 25 26 27 28 29 30 31 32 33 34 35 36 37 38 39 40 41 42 43 44 45 46 47 48 49 50

000
ASUS41 KCLE 202100
RWRCLE
OHIO REGIONAL WEATHER ROUNDUP
NATIONAL WEATHER SERVICE WILMINGTON, OH
500 PM EDT MON OCT 20 2014

NOTE: "FAIR" INDICATES FEW OR NO CLOUDS BELOW 12,000 FEET WITH NO
SIGNIFICANT WEATHER AND/OR OBSTRUCTIONS TO VISIBILITY.

OHZ001>008-015>018-024>027-034-035-043-044-202200-
   NORTHWEST OHIO

CITY           SKY/WX    TMP DP  RH WIND       PRES   REMARKS
DEFIANCE       CLOUDY    55  51  86 SW8       29.82S
FINDLAY        CLOUDY    54  51  90 SW12      29.82S
TOLEDO EXPRESS CLOUDY    53  50  89 CALM      29.82S
TOLEDO METCALF CLOUDY    54  49  83 W8        29.83S
LIMA           CLOUDY    55  52  89 SW8       29.84R
$$

OHZ009>014-019>023-028>033-038-089-202200-
   NORTHEAST OHIO

CITY           SKY/WX    TMP DP  RH WIND       PRES   REMARKS
CLE-HOPKINS    CLOUDY    56  46  69 S9        29.83F
CLE-LAKEFRONT  CLOUDY    58  45  62 S12       29.80F
CUY CO. ARPT   CLOUDY    57  48  72 S16       29.82F
LORAIN-ELYRIA  LGT RAIN  54  49  83 W12G24    29.83R
ASHTABULA      CLOUDY    55  44  66 S13G18    29.83S
AKRON-CANTON   CLOUDY    56  44  64 S15       29.84F
WOOSTER        NOT AVBL
MANSFIELD      LGT RAIN  53  51  93 SW10      29.84R
YOUNGSTOWN     LGT RAIN  55  43  63 S9        29.84F
$$

OHZ042-051>053-060>062-070>072-077>081-202200-
  SOUTHWEST OHIO

CITY           SKY/WX    TMP DP  RH WIND       PRES   REMARKS
CINC-COVINGTON PTSUNNY   63  48  58 SW13G21   29.87S
CINC-LUNKEN    CLOUDY    61  52  72 S8        29.87S
HAMILTON       PTSUNNY   63  54  72 CALM      29.86F
DAYTON         NOT AVBL
WRIGHT-PAT AFB NOT AVBL
DAYTON GENERAL CLOUDY    59  54  83 S5        29.85S
WILMINGTON     CLOUDY    55  49  80 SW8       29.86S
$$

OHZ036-037-039>041-045>050-054>059-063>069-073>076-082>088-202200-
  CENTRAL AND SOUTHEAST OHIO

CITY           SKY/WX    TMP DP  RH WIND       PRES   REMARKS
COLUMBUS       RAIN      56  48  74 S6        29.87R
OSU AIRPORT    LGT RAIN  53  49  86 NW3       29.87R FOG
BOLTON FIELD   RAIN      54  50  87 S5        29.87R
RICKENBACK AFB NOT AVBL
NEWARK         CLOUDY    57  46  66 W5        29.87R
MARION         LGT RAIN  53  50  89 S8        29.84F FOG
LANCASTER      LGT RAIN  57  46  66 W6        29.89R
ZANESVILLE     CLOUDY    58  43  57 S9        29.87F
NEW PHILLY     LGT RAIN  57  43  59 S7        29.87F
$$


USA.gov is the U.S. government's official web portal to all federal, state and local government web resources and services.